EW7285 Weather Reports


Display with metric or nautical units.
time (UTC)temp
F
wind
direction
speed
MPH
gust
MPH
rain 1hr
in
rain 24hr
in
rain mn
in
humidity
%
barometer
mb
20260906131518 67 263 6.0 11.0 0.00 0.01 0.01 54 1012.1
20260906130017 67 215 6.0 15.0 0.00 0.01 0.01 56 1012.2
20260906124515 67 207 11.0 14.0 0.00 0.01 0.01 53 1012.1
20260906123022 66 227 5.0 10.0 0.00 0.01 0.01 56 1012.1
20260906121513 67 238 7.0 13.0 0.00 0.01 0.01 55 1012.1
20260906120012 66 258 6.0 15.0 0.00 0.01 0.01 53 1012.2
20260906114510 66 252 7.0 15.0 0.00 0.01 0.01 55 1012.0
20260906113006 66 257 6.0 12.0 0.00 0.01 0.01 57 1012.0
20260906111503 65 223 9.0 13.0 0.00 0.01 0.01 58 1011.9
20260906104626 64 222 9.0 13.0 0.00 0.01 0.01 61 1011.8
20260906103056 64 249 7.0 12.0 0.00 0.01 0.01 65 1011.8
20260906101555 64 231 6.0 10.0 0.00 0.01 0.01 66 1011.5
20260906100052 63 257 6.0 10.0 0.00 0.01 0.01 68 1011.5
20260906094550 63 261 6.0 12.0 0.00 0.01 0.01 69 1011.4
20260906093058 62 311 7.0 13.0 0.00 0.01 0.01 70 1011.4
20260906091544 62 288 5.0 11.0 0.00 0.01 0.01 72 1011.3
20260906090041 61 255 8.0 11.0 0.00 0.01 0.01 72 1011.1
20260906084539 61 278 4.0 13.0 0.00 0.02 0.01 75 1010.9
20260906083037 60 240 6.0 9.0 0.00 0.02 0.01 76 1010.9
20260906081532 59 257 6.0 10.0 0.00 0.02 0.01 77 1010.7
20260906080033 59 271 6.0 10.0 0.00 0.02 0.01 77 1010.6
20260906074529 58 266 7.0 11.0 0.00 0.02 0.01 80 1010.5
20260906073029 57 252 7.0 12.0 0.00 0.02 0.01 82 1010.3
20260906071525 57 272 7.0 12.0 0.01 0.02 0.01 85 1010.1
20260906070017 56 254 7.0 13.0 0.01 0.02 0.01 88 1010.1
20260906064515 55 257 8.0 12.0 0.01 0.02 0.01 90 1009.9
20260906063011 54 259 7.0 12.0 0.00 0.01 0.00 93 1009.8
20260906061509 52 261 6.0 9.0 0.00 0.01 0.00 92 1009.7
20260906060009 51 259 2.0 4.0 0.00 0.01 0.00 93 1009.4
20260906054505 50 284 2.0 3.0 0.00 0.01 0.00 93 1009.3
20260906053002 46 284 0.0 0.0 0.00 0.01 0.00 93 1009.1
20260906051501 46 284 0.0 0.0 0.00 0.01 0.00 93 1009.0
20260906050122 44 284 0.0 0.0 0.00 0.01 0.00 93 1008.9
20260906044559 43 284 0.0 0.0 0.00 0.01 0.00 93 1008.8
20260906043058 42 284 0.0 0.0 0.00 0.01 0.00 93 1008.6
20260906041554 42 284 0.0 0.0 0.00 0.01 0.00 93 1008.4
20260906040053 43 284 0.0 0.0 0.00 0.01 0.00 93 1008.4
20260906034549 43 284 0.0 0.0 0.00 0.01 0.00 93 1008.3
20260906033055 43 284 0.0 0.0 0.00 0.01 0.00 93 1008.1
20260906031545 44 284 0.0 0.0 0.00 0.01 0.00 93 1008.0
20260906030042 44 284 0.0 0.0 0.00 0.01 0.00 93 1007.8
20260906024543 44 284 0.0 0.0 0.00 0.01 0.00 93 1007.6
20260906023038 44 284 0.0 0.0 0.00 0.01 0.00 93 1007.5
20260906021538 45 284 0.0 0.0 0.00 0.01 0.00 93 1007.3
20260906020038 45 284 0.0 0.0 0.00 0.01 0.00 93 1007.1
20260906014542 45 284 0.0 0.0 0.00 0.01 0.00 93 1006.9
20260906013031 46 284 0.0 0.0 0.00 0.01 0.00 93 1006.8
20260906011525 47 284 0.0 0.0 0.00 0.01 0.00 92 1006.6
20260906010023 47 284 0.0 2.0 0.00 0.01 0.00 92 1006.5
20260906004519 48 284 0.0 0.0 0.00 0.01 0.00 92 1006.3
20260906003015 48 284 0.0 2.0 0.00 0.01 0.00 92 1006.0
20260906001513 49 284 1.0 2.0 0.00 0.01 0.00 92 1005.9
20260906000010 49 284 2.0 3.0 0.00 0.01 0.00 92 1005.7
20260905234507 50 284 2.0 2.0 0.00 0.01 0.00 92 1005.5
20260905233010 51 284 1.0 2.0 0.00 0.01 0.00 92 1005.3
20260905231502 51 284 2.0 3.0 0.00 0.01 0.00 92 1005.1
20260905230128 52 284 1.0 3.0 0.00 0.01 0.00 91 1004.9
20260905224557 52 284 0.0 3.0 0.00 0.01 0.00 91 1004.8
20260905223053 52 311 2.0 4.0 0.00 0.01 0.00 91 1004.6
20260905221650 53 311 2.0 4.0 0.00 0.01 0.00 90 1004.4
20260905220047 53 294 3.0 5.0 0.00 0.01 0.00 90 1004.2
20260905214544 54 316 2.0 5.0 0.00 0.02 0.01 89 1003.9
20260905213043 54 312 3.0 6.0 0.00 0.02 0.01 89 1003.7
20260905211546 54 346 4.0 6.0 0.00 0.02 0.01 88 1003.6
20260905210040 55 315 2.0 5.0 0.00 0.02 0.01 86 1003.5
20260905204537 55 338 2.0 8.0 0.00 0.02 0.01 86 1003.2
20260905203035 55 319 2.0 6.0 0.00 0.02 0.01 86 1003.0
20260905201534 55 302 4.0 6.0 0.00 0.02 0.01 85 1002.8
20260905200032 55 303 2.0 8.0 0.00 0.02 0.01 85 1002.7
20260905194531 55 325 2.0 5.0 0.00 0.07 0.01 84 1002.5
20260905193028 55 346 3.0 5.0 0.00 0.07 0.01 83 1002.2
20260905191527 55 298 3.0 5.0 0.00 0.07 0.01 82 1002.1
20260905190026 55 312 2.0 4.0 0.00 0.07 0.01 80 1002.0
20260905184524 55 312 2.0 4.0 0.00 0.09 0.01 79 1001.8
20260905183020 55 312 2.0 4.0 0.00 0.09 0.01 79 1001.6
20260905181518 56 312 2.0 4.0 0.00 0.09 0.01 76 1001.5
20260905180017 56 312 1.0 3.0 0.00 0.09 0.01 76 1001.2
20260905174515 55 312 1.0 5.0 0.00 0.09 0.01 79 1000.9
20260905173011 56 312 0.0 0.0 0.00 0.09 0.01 79 1000.6
20260905171510 57 312 0.0 0.0 0.00 0.09 0.01 76 1000.4
20260905170009 59 312 0.0 0.0 0.00 0.09 0.01 74 1000.1
20260905164516 59 312 0.0 0.0 0.00 0.09 0.01 70 1000.0
20260905163005 60 312 0.0 0.0 0.00 0.09 0.01 70 999.9
20260905161503 61 312 0.0 0.0 0.00 0.09 0.01 71 999.7
20260905160009 60 312 0.0 0.0 0.00 0.09 0.01 69 999.7
20260905154501 61 312 2.0 6.0 0.00 0.09 0.01 64 999.6
20260905153100 61 337 5.0 10.0 0.00 0.09 0.01 62 999.4
20260905151556 62 300 3.0 5.0 0.00 0.09 0.01 62 999.3
20260905144554 61 27 3.0 10.0 0.00 0.09 0.01 68 999.1
20260905143052 61 336 8.0 14.0 0.00 0.09 0.01 65 998.9
20260905141549 61 329 6.0 10.0 0.00 0.09 0.01 62 998.7
20260905140048 61 340 4.0 11.0 0.00 0.09 0.01 64 998.7
20260905134548 61 311 7.0 14.0 0.00 0.09 0.01 63 998.6
20260905133044 62 346 7.0 13.0 0.00 0.09 0.01 66 998.4